Simultaneous Nadir Overpasses (SNOs) Predictions

Prediction of SNOs between LANDSAT-8 and NPP Satellite Orbit:

Table of predicted SNOs for the next 14.0 days since TLE Epoch: 12/14/2019
Index Date (LANDSAT-8) Time (LANDSAT-8) Lat,Lon (LANDSAT-8) SZA (LANDSAT-8 ) Date (NPP) Time (NPP) Lat,Lon (NPP) SZA (NPP ) Distance(km) Time Diff (sec)
1 12/14/2019 06:58:42 -70.13,-108.12 86.78 12/14/2019 06:57:36 -70.12,-108.13 86.78 1.08 66
2 12/14/2019 07:48:09 70.02, 59.37 93.12 12/14/2019 07:48:20 70.00, 59.36 93.10 2.67 11
3 12/14/2019 08:37:45 -69.58,-133.60 87.31 12/14/2019 08:38:56 -69.60,-132.73 87.31 33.89 71
4 12/16/2019 23:15:11 -70.11, 7.73 86.65 12/16/2019 23:14:29 -70.09, 7.68 86.67 3.08 42
5 12/17/2019 00:04:39 69.95, 175.15 93.19 12/17/2019 00:05:13 69.98, 175.17 93.22 3.13 34
6 12/19/2019 14:42:00 70.74, -43.09 94.06 12/19/2019 14:40:52 70.79, -44.97 94.14 69.04 68
7 12/19/2019 15:31:41 -70.04, 123.51 86.64 12/19/2019 15:31:22 -70.07, 123.50 86.61 2.98 19
8 12/19/2019 16:21:08 69.93, -69.00 93.25 12/19/2019 16:22:06 69.95, -69.02 93.28 3.26 58
9 12/22/2019 06:58:40 70.12, 71.87 93.47 12/22/2019 06:57:33 70.14, 71.84 93.50 2.61 67
10 12/22/2019 07:48:09 -70.02,-120.64 86.63 12/22/2019 07:48:13 -69.99,-120.61 86.66 3.21 4
11 12/22/2019 08:37:41 69.62, 46.46 92.99 12/22/2019 08:38:52 69.62, 47.25 92.96 30.58 71
12 12/24/2019 23:15:08 70.09,-172.29 93.42 12/24/2019 23:14:24 70.07,-172.27 93.40 2.25 44
13 12/25/2019 00:04:38 -69.99, -4.80 86.68 12/25/2019 00:05:06 -69.97, -4.80 86.71 2.49 28
14 12/27/2019 14:41:56 -70.94, 137.21 85.83 12/27/2019 14:40:49 -70.99, 134.72 85.72 90.59 67
15 12/27/2019 15:31:37 70.06, -56.46 93.31 12/27/2019 15:31:17 70.05, -56.47 93.31 0.75 20
16 12/27/2019 16:21:07 -69.96, 111.04 86.79 12/27/2019 16:21:59 -69.95, 111.00 86.81 2.09 52




NCC Satellite Simultaneous Nadir Overpasses (SNOs) Prediction Service
